Ravenna, OH

6:41 AM EDT on September 15, 2019 (GMT -0400)
Ravenna

Weather History for KPOV - August, 2019

Change the Weather History Date:

Saturday, August 24, 2019

  Actual Average (KCAK) Record (KCAK)
Temperature  
Mean Temperature 62 °F -  
Max Temperature 71 °F 79 °F 94 °F (1954)
Min Temperature 53 °F 59 °F 43 °F (1890)
Degree Days  
Heating Degree Days 3    
Growing Degree Days 12 (Base 50)    
Moisture  
Dew Point 52 °F    
Average Humidity 70    
Maximum Humidity 93    
Minimum Humidity 46    
Precipitation  
Precipitation 0.00 in - - ()
Sea Level Pressure  
Sea Level Pressure 30.25 in    
Wind  
Wind Speed 3 mph (NE)    
Max Wind Speed 10 mph    
Max Gust Speed -    
Visibility 10 miles    
Events      
Averages and records for this station are not official NWS values.
T = Trace of Precipitation, MM = Missing Value Source: NWS Daily Summary

Daily Weather History Graph

Daily Weather History Graph

Search for Another Location

Airport or City:

Astronomy

Aug. 24, 2019 Rise Set
Actual Time 6:43 AM EDT 8:10 PM EDT
Civil Twilight 6:14 AM EDT 8:39 PM EDT
Nautical Twilight 5:39 AM EDT 9:14 PM EDT
Astronomical Twilight 5:02 AM EDT 9:51 PM EDT
Moon 12:34 AM EDT (8/24) 3:26 PM EDT (8/24)
Length of Visible Light 14h 25m
Length of Day
13h 27m
Last Quarter, 39% of the Moon is Illuminated
Aug 24
Last Quarter
Aug 30
New
Sep 5
First Quarter
Sep 14
Full
Sep 21
Last Quarter

Hourly Weather History & Observations

Time (EDT) Temp. Dew Point Humidity Pressure Visibility Wind Dir Wind Speed Gust Speed Precip Events Conditions
12:35 AM 58.1 °F 53.6 °F 85% 30.21 in 10.0 mi Calm Calm - N/A   Overcast
12:58 AM 58.6 °F 54.3 °F 86% 30.21 in 10.0 mi Calm Calm - N/A   Overcast
1:15 AM 58.1 °F 53.8 °F 86% 30.21 in 10.0 mi Calm Calm - N/A   Overcast
1:38 AM 58.5 °F 54.9 °F 88% 30.21 in 10.0 mi Calm Calm - N/A   Overcast
1:56 AM 58.8 °F 54.9 °F 87% 30.21 in 10.0 mi Calm Calm - N/A   Overcast
2:18 AM 58.1 °F 54.9 °F 89% 30.21 in 10.0 mi Calm Calm - N/A   Overcast
2:36 AM 58.1 °F 54.5 °F 88% 30.21 in 10.0 mi Calm Calm - N/A   Overcast
2:55 AM 57.4 °F 54.5 °F 90% 30.21 in 10.0 mi Calm Calm - N/A   Overcast
3:15 AM 56.5 °F 54.0 °F 91% 30.21 in 10.0 mi Calm Calm - N/A   Mostly Cloudy
3:35 AM 56.3 °F 53.8 °F 91% 30.21 in 10.0 mi Calm Calm - N/A   Overcast
3:59 AM 57.2 °F 55.0 °F 92% 30.22 in 10.0 mi Calm Calm - N/A   Overcast
4:15 AM 57.4 °F 55.4 °F 93% 30.22 in 10.0 mi Calm Calm - N/A   Overcast
4:35 AM 57.2 °F 54.5 °F 91% 30.22 in 10.0 mi Calm Calm - N/A   Overcast
4:58 AM 57.2 °F 53.6 °F 88% 30.22 in 10.0 mi Calm Calm - N/A   Overcast
5:15 AM 57.2 °F 53.6 °F 88% 30.23 in 10.0 mi Calm Calm - N/A   Overcast
5:38 AM 56.1 °F 52.3 °F 87% 30.24 in 10.0 mi Calm Calm - N/A   Mostly Cloudy
5:56 AM 55.6 °F 52.3 °F 89% 30.24 in 10.0 mi Calm Calm - N/A   Scattered Clouds
6:18 AM 55.2 °F 51.6 °F 88% 30.24 in 10.0 mi Calm Calm - N/A   Scattered Clouds
6:36 AM 54.0 °F 51.1 °F 90% 30.25 in 10.0 mi Calm Calm - N/A   Clear
6:55 AM 53.6 °F 50.4 °F 89% 30.26 in 10.0 mi Calm Calm - N/A   Scattered Clouds
7:15 AM 54.3 °F 50.9 °F 88% 30.27 in 10.0 mi Calm Calm - N/A   Scattered Clouds
7:35 AM 54.5 °F 51.3 °F 89% 30.27 in 10.0 mi ENE 4.6 mph - N/A   Clear
7:58 AM 56.8 °F 52.0 °F 84% 30.27 in 10.0 mi ENE 4.6 mph - N/A   Clear
8:19 AM 58.8 °F 52.3 °F 79% 30.27 in 10.0 mi East 3.5 mph - N/A   Clear
8:37 AM 60.1 °F 52.0 °F 75% 30.28 in 10.0 mi NE 4.6 mph - N/A   Clear
8:56 AM 61.7 °F 51.8 °F 70% 30.28 in 10.0 mi ENE 6.9 mph - N/A   Clear
9:18 AM 62.4 °F 51.6 °F 68% 30.28 in 10.0 mi ENE 5.8 mph - N/A   Clear
9:35 AM 63.7 °F 52.0 °F 66% 30.28 in 10.0 mi ENE 6.9 mph - N/A   Clear
9:59 AM 64.4 °F 51.8 °F 64% 30.28 in 10.0 mi ENE 8.1 mph - N/A   Clear
10:15 AM 65.5 °F 51.8 °F 61% 30.28 in 10.0 mi East 8.1 mph - N/A   Clear
10:39 AM 66.0 °F 50.9 °F 58% 30.28 in 10.0 mi NE 8.1 mph - N/A   Clear
10:57 AM 67.1 °F 51.3 °F 57% 30.28 in 10.0 mi NE 8.1 mph - N/A   Clear
11:19 AM 67.1 °F 49.8 °F 54% 30.28 in 10.0 mi East 9.2 mph - N/A   Clear
11:55 AM 68.0 °F 51.1 °F 55% 30.28 in 10.0 mi NNE 8.1 mph - N/A   Clear
12:18 PM 69.4 °F 51.3 °F 52% 30.27 in 10.0 mi ENE 5.8 mph - N/A   Scattered Clouds
12:35 PM 68.9 °F 49.8 °F 51% 30.27 in 10.0 mi East 5.8 mph - N/A   Scattered Clouds
12:55 PM 71.1 °F 51.3 °F 49% 30.27 in 7.0 mi ENE 5.8 mph - N/A   Scattered Clouds
1:15 PM 68.4 °F 49.1 °F 50% 30.27 in 10.0 mi NE 8.1 mph - N/A   Mostly Cloudy
1:35 PM 67.3 °F 49.3 °F 52% 30.27 in 10.0 mi East 6.9 mph - N/A   Overcast
1:58 PM 70.9 °F 50.0 °F 48% 30.26 in 10.0 mi NNW 3.5 mph - N/A   Scattered Clouds
2:15 PM 70.7 °F 49.5 °F 47% 30.26 in 10.0 mi East 8.1 mph - N/A   Mostly Cloudy
2:38 PM 66.6 °F 51.4 °F 58% 30.26 in 10.0 mi North 4.6 mph - N/A   Overcast
2:56 PM 67.1 °F 51.4 °F 57% 30.25 in 10.0 mi North 5.8 mph - N/A   Overcast
3:18 PM 67.8 °F 52.3 °F 58% 30.25 in 10.0 mi North 5.8 mph - N/A   Overcast
3:36 PM 69.3 °F 52.5 °F 55% 30.25 in 10.0 mi NNE 5.8 mph - N/A   Mostly Cloudy
3:55 PM 70.7 °F 51.8 °F 51% 30.25 in 10.0 mi NNE 8.1 mph - N/A   Scattered Clouds
4:15 PM 71.4 °F 50.9 °F 48% 30.24 in 10.0 mi ENE 6.9 mph - N/A   Scattered Clouds
4:35 PM 69.6 °F 52.0 °F 53% 30.23 in 10.0 mi NE 10.4 mph - N/A   Scattered Clouds
4:58 PM 70.3 °F 52.3 °F 53% 30.23 in 10.0 mi NNE 3.5 mph - N/A   Scattered Clouds
5:15 PM 70.9 °F 50.2 °F 48% 30.23 in 10.0 mi ENE 9.2 mph - N/A   Scattered Clouds
5:38 PM 70.5 °F 50.0 °F 48% 30.23 in 10.0 mi ENE 4.6 mph - N/A   Scattered Clouds
5:56 PM 69.6 °F 50.4 °F 50% 30.23 in 10.0 mi NNE 6.9 mph - N/A   Clear
6:18 PM 69.1 °F 49.6 °F 50% 30.23 in 10.0 mi ENE 9.2 mph - N/A   Clear
6:36 PM 68.9 °F 50.2 °F 51% 30.23 in 10.0 mi ENE 4.6 mph - N/A   Clear
6:55 PM 68.4 °F 46.8 °F 46% 30.23 in 10.0 mi NE 6.9 mph - N/A   Mostly Cloudy
7:15 PM 67.3 °F 49.3 °F 52% 30.24 in 10.0 mi NE 5.8 mph - N/A   Overcast
7:35 PM 64.8 °F 49.8 °F 58% 30.24 in 10.0 mi NNE 3.5 mph - N/A   Mostly Cloudy
7:59 PM 63.3 °F 50.5 °F 63% 30.24 in 10.0 mi NNE 4.6 mph - N/A   Overcast
8:15 PM 61.9 °F 51.1 °F 68% 30.24 in 10.0 mi North 4.6 mph - N/A   Scattered Clouds
8:39 PM 61.0 °F 50.9 °F 69% 30.25 in 10.0 mi NE 3.5 mph - N/A   Clear
8:57 PM 60.3 °F 51.1 °F 72% 30.25 in 10.0 mi NE 6.9 mph - N/A   Clear
9:19 PM 60.4 °F 51.1 °F 71% 30.25 in 10.0 mi NE 5.8 mph - N/A   Clear
9:37 PM 60.3 °F 51.3 °F 72% 30.26 in 10.0 mi NE 6.9 mph - N/A   Clear
9:55 PM 59.7 °F 51.4 °F 74% 30.26 in 10.0 mi NE 6.9 mph - N/A   Clear
10:15 PM 59.4 °F 51.4 °F 75% 30.26 in 10.0 mi ENE 8.1 mph - N/A   Clear
10:35 PM 59.0 °F 51.3 °F 75% 30.27 in 10.0 mi NE 6.9 mph - N/A   Clear
10:59 PM 58.1 °F 51.3 °F 78% 30.27 in 10.0 mi ENE 6.9 mph - N/A   Clear
11:15 PM 57.2 °F 51.4 °F 81% 30.27 in 10.0 mi NE 6.9 mph - N/A   Clear
11:39 PM 56.5 °F 51.3 °F 83% 30.27 in 10.0 mi ENE 6.9 mph - N/A   Clear
11:57 PM 56.3 °F 51.4 °F 84% 30.27 in 10.0 mi ENE 5.8 mph - N/A   Clear